Weather History for Danville, IL

Change the Weather History Date:

Wednesday, November 20, 2013

  Actual Average (KLAF) Record (KLAF)
Temperature  
Mean Temperature 34 °F 41 °F  
Max Temperature 44 °F 49 °F 66 °F (1992)
Min Temperature 25 °F 33 °F 13 °F (1969)
Degree Days  
Heating Degree Days 31 24  
Month to date heating degree days 398  
Since 1 July heating degree days 832  
Cooling Degree Days 0 0  
Month to date cooling degree days 0  
Year to date cooling degree days 982  
Moisture  
Dew Point 29 °F    
Average Humidity 73    
Maximum Humidity 88    
Minimum Humidity 56    
Precipitation  
Precipitation 0.00 in 0.10 in 1.57 in (1956)
Month to date precipitation 1.95  
Year to date precipitation 33.05  
Sea Level Pressure  
Sea Level Pressure 30.18 in    
Wind  
Wind Speed 7 mph (SE)    
Max Wind Speed 14 mph    
Max Gust Speed -    
Visibility 10 miles    
Events Rain    
T = Trace of Precipitation, MM = Missing Value Source: NWS Daily Summary

Daily Weather History Graph

Daily Weather History Graph

Search for Another Location

Airport:

Trip Planner

Search our weather history database for the weather conditions in past years. The results will help you decide how hot, cold, wet, or windy it might be!

Date:

Astronomy

Nov. 20, 2013 Rise Set
Actual Time 6:41 AM CST 4:29 PM CST
Civil Twilight 6:12 AM CST 4:59 PM CST
Nautical Twilight 5:39 AM CST 5:32 PM CST
Astronomical Twilight 5:07 AM CST 6:04 PM CST
Moon 7:12 PM CST (11/20) 9:06 AM CST (11/20)
Length of Visible Light 10h 46m
Length of Day
9h 47m
Waning Gibbous, 91% of the Moon is Illuminated
Nov 20
Waning Gibbous
Nov 25
Last Quarter
Dec 2
New
Dec 9
First Quarter
Dec 17
Full

Hourly Weather History & Observations

Time (CST) Temp. Windchill Dew Point Humidity Pressure Visibility Wind Dir Wind Speed Gust Speed Precip Events Conditions
12:15 AM 29.1 °F 22.1 °F 24.8 °F 84% 30.26 in 10.0 mi East 6.9 mph - N/A   Clear
12:35 AM 28.8 °F 20.9 °F 24.4 °F 84% 30.26 in 10.0 mi East 8.1 mph - N/A   Clear
12:55 AM 28.2 °F 20.2 °F 23.9 °F 84% 30.25 in 10.0 mi East 8.1 mph - N/A   Clear
1:15 AM 28.2 °F 21.0 °F 23.9 °F 84% 30.25 in 10.0 mi ESE 6.9 mph - N/A   Clear
1:35 AM 28.2 °F 21.0 °F 24.3 °F 85% 30.25 in 10.0 mi ESE 6.9 mph - N/A   Clear
1:55 AM 27.7 °F 20.4 °F 23.9 °F 86% 30.26 in 10.0 mi ESE 6.9 mph - N/A   Clear
2:15 AM 27.5 °F 20.2 °F 23.7 °F 86% 30.26 in 10.0 mi East 6.9 mph - N/A   Clear
2:35 AM 27.1 °F 20.7 °F 23.0 °F 84% 30.26 in 10.0 mi ESE 5.8 mph - N/A   Clear
2:55 AM 27.0 °F 20.5 °F 23.0 °F 85% 30.25 in 10.0 mi ESE 5.8 mph - N/A   Clear
3:15 AM 26.6 °F 20.0 °F 22.6 °F 85% 30.25 in 10.0 mi East 5.8 mph - N/A   Clear
3:35 AM 26.1 °F 21.9 °F 22.1 °F 85% 30.26 in 10.0 mi ESE 3.5 mph - N/A   Clear
3:55 AM 25.5 °F 19.9 °F 21.6 °F 85% 30.26 in 10.0 mi ESE 4.6 mph - N/A   Clear
4:15 AM 25.3 °F 18.5 °F 21.2 °F 84% 30.26 in 10.0 mi ESE 5.8 mph - N/A   Clear
4:35 AM 25.3 °F 19.7 °F 21.6 °F 86% 30.25 in 10.0 mi ESE 4.6 mph - N/A   Clear
4:55 AM 25.7 °F 20.1 °F 21.9 °F 86% 30.26 in 10.0 mi ESE 4.6 mph - N/A   Clear
5:15 AM 25.5 °F 19.9 °F 21.7 °F 86% 30.25 in 10.0 mi ESE 4.6 mph - N/A   Clear
5:35 AM 25.2 °F 19.5 °F 21.2 °F 85% 30.25 in 10.0 mi East 4.6 mph - N/A   Clear
5:55 AM 25.5 °F 17.8 °F 21.7 °F 86% 30.24 in 10.0 mi East 6.9 mph - N/A   Clear
6:15 AM 26.6 °F 17.5 °F 23.0 °F 86% 30.23 in 10.0 mi East 9.2 mph - N/A   Clear
6:35 AM 27.3 °F 17.7 °F 23.9 °F 87% 30.22 in 10.0 mi East 10.4 mph - N/A   Clear
6:55 AM 27.5 °F 19.3 °F 24.4 °F 88% 30.24 in 10.0 mi East 8.1 mph - N/A   Clear
8:35 AM 32.4 °F 23.5 °F 26.8 °F 80% 30.22 in 10.0 mi ESE 11.5 mph - N/A   Unknown
8:55 AM 33.8 °F 25.8 °F 28.2 °F 80% 30.23 in 10.0 mi SE 10.4 mph - N/A   Unknown
9:15 AM 34.3 °F 26.5 °F 27.7 °F 77% 30.23 in 10.0 mi SE 10.4 mph - N/A   Unknown
9:35 AM 35.1 °F 25.9 °F 27.9 °F 75% 30.22 in 10.0 mi SE 13.8 mph - N/A   Unknown
9:55 AM 37.4 °F 30.3 °F 28.8 °F 71% 30.23 in 10.0 mi SE 10.4 mph - N/A   Unknown
10:15 AM - - - N/A% 30.22 in - North - - N/A   Unknown
10:35 AM - - - N/A% - - North - - N/A   Unknown
10:55 AM 41.0 °F 34.3 °F 28.9 °F 62% 30.19 in 10.0 mi SE 11.5 mph - N/A   Clear
11:15 AM 40.6 °F 33.4 °F 28.8 °F 63% 30.19 in 10.0 mi SE 12.7 mph - N/A   Clear
11:35 AM 41.4 °F 35.7 °F 29.1 °F 62% 30.18 in 10.0 mi SE 9.2 mph - N/A   Clear
11:55 AM 42.4 °F 37.0 °F 29.1 °F 59% 30.17 in 10.0 mi SE 9.2 mph - N/A   Clear
12:15 PM 42.3 °F 37.3 °F 29.1 °F 60% 30.15 in 10.0 mi SE 8.1 mph - N/A   Clear
12:35 PM 42.1 °F 37.7 °F 29.3 °F 61% 30.15 in 10.0 mi SSE 6.9 mph - N/A   Clear
12:55 PM 43.9 °F 39.3 °F 29.1 °F 56% 30.15 in 10.0 mi SSE 8.1 mph - N/A   Clear
1:15 PM 43.3 °F 38.6 °F 28.9 °F 57% 30.13 in 10.0 mi SE 8.1 mph - N/A   Clear
1:35 PM 43.3 °F 38.6 °F 28.9 °F 57% 30.13 in 10.0 mi SSE 8.1 mph - N/A   Clear
1:55 PM 43.5 °F 38.9 °F 29.7 °F 58% 30.13 in 10.0 mi SSE 8.1 mph - N/A   Clear
2:15 PM 43.2 °F 39.0 °F 29.5 °F 59% 30.13 in 10.0 mi SSE 6.9 mph - N/A   Clear
2:35 PM 43.2 °F 37.9 °F 28.9 °F 57% 30.14 in 10.0 mi SSE 9.2 mph - N/A   Clear
2:55 PM 43.0 °F 38.8 °F 29.7 °F 59% 30.13 in 10.0 mi SE 6.9 mph - N/A   Clear
3:15 PM 42.8 °F 39.3 °F 30.2 °F 61% 30.13 in 10.0 mi SSE 5.8 mph - N/A   Clear
3:35 PM 42.8 °F 39.3 °F 30.6 °F 62% 30.13 in 10.0 mi SSE 5.8 mph - N/A   Scattered Clouds
3:55 PM 42.8 °F 39.3 °F 31.3 °F 64% 30.13 in 10.0 mi SE 5.8 mph - N/A   Overcast
4:15 PM 42.4 °F 38.8 °F 31.8 °F 66% 30.13 in 10.0 mi SE 5.8 mph - N/A   Overcast
4:35 PM 42.3 °F 39.4 °F 32.0 °F 67% 30.13 in 10.0 mi SSE 4.6 mph - N/A   Overcast
4:55 PM 42.1 °F 38.4 °F 32.0 °F 67% 30.13 in 10.0 mi SE 5.8 mph - N/A Rain Light Rain
5:15 PM 41.5 °F 38.6 °F 32.7 °F 71% 30.13 in 10.0 mi SE 4.6 mph - N/A   Overcast
5:35 PM 41.5 °F 38.6 °F 32.7 °F 71% 30.13 in 10.0 mi ESE 4.6 mph - N/A   Overcast
5:55 PM 41.7 °F 38.8 °F 32.5 °F 70% 30.12 in 10.0 mi ESE 4.6 mph - N/A   Overcast
6:15 PM 41.9 °F 36.9 °F 32.0 °F 68% 30.11 in 10.0 mi ESE 8.1 mph - N/A Rain Light Rain
6:35 PM 41.9 °F 37.5 °F 32.2 °F 68% 30.11 in 10.0 mi SE 6.9 mph - N/A   Overcast
6:55 PM 41.4 °F 36.8 °F 32.7 °F 71% 30.10 in 10.0 mi SE 6.9 mph - N/A   Overcast
7:15 PM 41.9 °F 37.5 °F 32.9 °F 70% 30.11 in 10.0 mi SE 6.9 mph - N/A Rain Light Rain
7:35 PM 41.9 °F 37.5 °F 32.9 °F 70% 30.10 in 10.0 mi SE 6.9 mph - N/A   Overcast
7:55 PM 42.3 °F 37.9 °F 32.9 °F 69% 30.10 in 10.0 mi SE 6.9 mph - N/A   Overcast
8:15 PM 42.3 °F 37.9 °F 33.3 °F 70% 30.11 in 10.0 mi SE 6.9 mph - N/A   Overcast
8:35 PM 42.4 °F 36.5 °F 33.8 °F 71% 30.09 in 10.0 mi SSE 10.4 mph - N/A Rain Light Rain
8:55 PM 42.3 °F 37.3 °F 34.3 °F 74% 30.10 in 10.0 mi SSE 8.1 mph - N/A Rain Light Rain
9:15 PM 42.3 °F 40.5 °F 34.9 °F 75% 30.11 in 10.0 mi SE 3.5 mph - N/A Rain Light Rain
9:35 PM 41.9 °F 39.0 °F 34.9 °F 76% 30.11 in 10.0 mi ESE 4.6 mph - N/A   Overcast
9:55 PM 42.6 °F 39.9 °F 35.1 °F 75% 30.11 in 10.0 mi SE 4.6 mph - N/A   Overcast
10:15 PM 43.7 °F - 34.3 °F 70% 30.12 in 10.0 mi Calm Calm - N/A   Overcast
10:35 PM 43.5 °F 41.9 °F 35.2 °F 73% 30.13 in 10.0 mi East 3.5 mph - N/A   Overcast
10:55 PM 43.2 °F 40.5 °F 36.0 °F 76% 30.12 in 10.0 mi East 4.6 mph - N/A Rain Light Rain
11:15 PM 43.3 °F 39.2 °F 36.0 °F 75% 30.13 in 10.0 mi SE 6.9 mph - N/A Rain Light Rain
11:35 PM 43.9 °F 40.5 °F 35.4 °F 72% 30.13 in 10.0 mi SE 5.8 mph - N/A Rain Light Rain
11:55 PM 44.1 °F 40.8 °F 35.6 °F 72% 30.12 in 10.0 mi SE 5.8 mph - N/A   Overcast